Location: Payette
(44.0782°N, 116.9338°W)
Time: 01:26:47
(UTC-06:00)

ISS - Visible Passes

Search period start: 21 March 2019 00:00
Search period end: 31 March 2019 00:00
Orbit: 406 x 411 km, 51.6° (Epoch: 21 March)

Date Brightness Start Highest point End Pass type
(mag) Time Alt. Az. Time Alt. Az. Time Alt. Az.
21 Mar -2.9 21:09:04 10° SSW 21:12:00 30° SE 21:12:49 27° ESE visible
21 Mar -0.6 22:45:20 10° W 22:45:37 12° W 22:45:37 12° W visible
22 Mar -3.6 21:54:04 10° WSW 21:57:21 67° NNW 21:57:22 67° NNW visible
23 Mar -3.9 21:02:59 10° SW 21:06:15 73° SSE 21:08:54 15° ENE visible
23 Mar -1.1 22:40:09 10° WNW 22:41:40 20° NW 22:41:40 20° NW visible
24 Mar -2.4 21:48:43 10° W 21:51:49 36° NNW 21:53:01 26° NNE visible
25 Mar -3.1 20:57:22 10° WSW 21:00:36 53° NNW 21:03:50 10° NE visible
25 Mar -1.3 22:34:59 10° WNW 22:36:59 21° NNW 22:36:59 21° NNW visible
26 Mar -1.8 21:43:31 10° WNW 21:46:20 25° NNW 21:48:05 17° NNE visible
27 Mar -2.2 20:52:01 10° W 20:55:02 31° NNW 20:58:02 10° NE visible
27 Mar -1.5 22:29:39 10° NW 22:31:49 21° N 22:31:49 21° N visible
28 Mar -1.7 21:38:15 10° WNW 21:40:53 21° N 21:42:46 14° NE visible
28 Mar -0.3 23:15:11 10° NW 23:15:29 12° NW 23:15:29 12° NW visible
29 Mar -1.8 20:46:46 10° WNW 20:49:31 23° N 20:52:16 10° NE visible
29 Mar -1.8 22:24:01 10° NW 22:26:22 23° N 22:26:22 23° N visible
30 Mar -1.8 21:32:46 10° NW 21:35:24 22° N 21:37:14 15° NE visible
30 Mar -0.6 23:09:18 10° NW 23:09:57 15° NW 23:09:57 15° NW visible
